Weather History for Paynesville, MN

Change the Weather History Date:

Tuesday, April 16, 2013

  Actual Average (KLJF) Record (KLJF)
Temperature  
Mean Temperature 32 °F -  
Max Temperature 36 °F 60 °F 84 °F (1958)
Min Temperature 28 °F 36 °F 18 °F (1961)
Degree Days  
Heating Degree Days 33    
Moisture  
Dew Point 26 °F    
Average Humidity 78    
Maximum Humidity 91    
Minimum Humidity 68    
Precipitation  
Precipitation 0.03 in - - ()
Sea Level Pressure  
Sea Level Pressure 30.18 in    
Wind  
Wind Speed 10 mph (WNW)    
Max Wind Speed 15 mph    
Max Gust Speed 23 mph    
Visibility 10 miles    
Events      
Averages and records for this station are not official NWS values.
T = Trace of Precipitation, MM = Missing Value Source: NWS Daily Summary

Daily Weather History Graph

Daily Weather History Graph

Search for Another Location

Airport:

Trip Planner

Search our weather history database for the weather conditions in past years. The results will help you decide how hot, cold, wet, or windy it might be!

Date:

Astronomy

Apr. 16, 2013 Rise Set
Actual Time 6:31 AM CDT 8:06 PM CDT
Civil Twilight 6:00 AM CDT 8:37 PM CDT
Nautical Twilight 5:22 AM CDT 9:15 PM CDT
Astronomical Twilight 4:42 AM CDT 9:56 PM CDT
Moon 10:43 AM CDT (4/16) 1:11 AM CDT (4/16)
Length of Visible Light 14h 37m
Length of Day
13h 35m
Waxing Crescent, 33% of the Moon is Illuminated
Apr 16
Waxing Crescent
Apr 18
First Quarter
Apr 25
Full
May 2
Last Quarter
May 9
New

Hourly Weather History & Observations

Time (CDT) Temp. Windchill Dew Point Humidity Pressure Visibility Wind Dir Wind Speed Gust Speed Precip Events Conditions
12:13 AM 32.4 °F 23.0 °F 27.5 °F 82% 29.97 in 10.0 mi West 12.7 mph 20.7 mph N/A   Overcast
12:33 AM 32.2 °F 22.7 °F 27.5 °F 83% 29.98 in 10.0 mi West 12.7 mph - N/A   Overcast
12:52 AM 32.0 °F 21.6 °F 27.5 °F 83% 29.99 in 10.0 mi West 15.0 mph 23.0 mph N/A   Overcast
1:13 AM 32.0 °F 22.1 °F 27.3 °F 83% 30.00 in 10.0 mi WNW 13.8 mph - N/A   Overcast
1:33 AM 32.0 °F 21.6 °F 25.7 °F 78% 30.00 in 10.0 mi WNW 15.0 mph 21.9 mph N/A   Overcast
1:53 AM 32.0 °F 22.1 °F 26.1 °F 79% 30.00 in 10.0 mi WNW 13.8 mph 21.9 mph N/A   Overcast
2:13 AM 32.0 °F 24.8 °F 26.6 °F 80% 29.99 in 10.0 mi WNW 8.1 mph - N/A   Overcast
2:33 AM 32.0 °F 21.6 °F 26.2 °F 79% 30.00 in 10.0 mi WNW 15.0 mph 20.7 mph N/A   Overcast
2:53 AM 31.8 °F 22.3 °F 25.7 °F 78% 30.02 in 10.0 mi WNW 12.7 mph 17.3 mph N/A   Overcast
3:13 AM 31.5 °F 20.9 °F 26.2 °F 81% 30.02 in 10.0 mi West 15.0 mph 18.4 mph N/A   Overcast
3:33 AM 31.1 °F 20.9 °F 25.9 °F 81% 30.02 in 10.0 mi WNW 13.8 mph 21.9 mph N/A   Overcast
3:53 AM 31.1 °F 21.9 °F 25.7 °F 80% 30.03 in 10.0 mi WNW 11.5 mph 16.1 mph N/A   Overcast
4:13 AM 31.1 °F 20.5 °F 25.3 °F 79% 30.04 in 10.0 mi WNW 15.0 mph 20.7 mph N/A   Overcast
4:33 AM 30.9 °F 20.7 °F 25.5 °F 80% 30.06 in 10.0 mi WNW 13.8 mph 19.6 mph N/A   Overcast
4:53 AM 30.6 °F 20.7 °F 25.3 °F 81% 30.06 in 10.0 mi WNW 12.7 mph - N/A   Overcast
5:13 AM 30.2 °F 19.3 °F 25.3 °F 82% 30.06 in 10.0 mi WNW 15.0 mph - N/A   Overcast
5:33 AM 30.2 °F 21.3 °F 25.2 °F 82% 30.07 in 10.0 mi WNW 10.4 mph 17.3 mph N/A   Overcast
5:53 AM 30.2 °F 19.8 °F 25.0 °F 81% 30.08 in 10.0 mi WNW 13.8 mph 18.4 mph N/A   Overcast
6:13 AM 30.2 °F 21.9 °F 25.3 °F 82% 30.09 in 10.0 mi WNW 9.2 mph 17.3 mph N/A   Overcast
6:33 AM 29.8 °F 22.2 °F 25.5 °F 84% 30.09 in 10.0 mi WNW 8.1 mph - N/A   Overcast
6:53 AM 29.3 °F 21.5 °F 25.5 °F 86% 30.10 in 10.0 mi West 8.1 mph - N/A   Overcast
7:13 AM 28.8 °F 20.9 °F 25.5 °F 88% 30.13 in 10.0 mi West 8.1 mph - N/A   Overcast
7:33 AM 29.3 °F 21.5 °F 25.3 °F 85% 30.13 in 10.0 mi WNW 8.1 mph - N/A   Overcast
7:53 AM 29.7 °F 20.7 °F 25.5 °F 85% 30.15 in 10.0 mi WNW 10.4 mph - N/A   Overcast
8:13 AM 30.0 °F 22.4 °F 25.7 °F 84% 30.15 in 10.0 mi WNW 8.1 mph - N/A   Overcast
8:33 AM 30.6 °F 21.8 °F 25.7 °F 82% 30.16 in 10.0 mi WNW 10.4 mph - N/A   Mostly Cloudy
8:53 AM 30.9 °F 22.2 °F 25.7 °F 81% 30.16 in 10.0 mi WNW 10.4 mph - N/A   Scattered Clouds
9:13 AM 31.3 °F 24.7 °F 26.4 °F 82% 30.18 in 10.0 mi WNW 6.9 mph - N/A   Clear
9:33 AM 31.8 °F 24.6 °F 26.2 °F 80% 30.18 in 10.0 mi WNW 8.1 mph - N/A   Clear
9:53 AM 32.0 °F 25.6 °F 26.2 °F 79% 30.19 in 10.0 mi WNW 6.9 mph - N/A   Clear
10:13 AM 32.0 °F 24.2 °F 25.9 °F 78% 30.19 in 10.0 mi WNW 9.2 mph - N/A   Scattered Clouds
10:33 AM 32.2 °F 25.0 °F 25.7 °F 77% 30.20 in 10.0 mi WNW 8.1 mph - N/A   Scattered Clouds
10:53 AM 32.5 °F 24.8 °F 25.3 °F 75% 30.20 in 10.0 mi WNW 9.2 mph - N/A   Scattered Clouds
11:13 AM 33.3 °F 25.1 °F 24.6 °F 71% 30.21 in 10.0 mi WNW 10.4 mph - 0.03 in   Clear
11:33 AM 33.1 °F 24.9 °F 25.7 °F 74% 30.21 in 10.0 mi WNW 10.4 mph - 0.03 in   Scattered Clouds
11:53 AM 33.1 °F 26.1 °F 25.3 °F 73% 30.23 in 10.0 mi WNW 8.1 mph - 0.03 in   Mostly Cloudy
12:13 PM 33.3 °F 26.4 °F 25.5 °F 73% 30.23 in 10.0 mi WNW 8.1 mph - N/A   Mostly Cloudy
12:33 PM 33.4 °F 26.6 °F 25.5 °F 73% 30.23 in 10.0 mi WNW 8.1 mph - N/A   Mostly Cloudy
12:53 PM 33.6 °F 28.4 °F 25.0 °F 71% 30.24 in 10.0 mi NW 5.8 mph - N/A   Scattered Clouds
1:13 PM 33.8 °F 27.7 °F 25.3 °F 71% 30.24 in 10.0 mi NW 6.9 mph - N/A   Scattered Clouds
1:33 PM 33.8 °F 27.0 °F 25.9 °F 73% 30.24 in 10.0 mi NNW 8.1 mph - N/A   Scattered Clouds
1:53 PM 34.2 °F 26.8 °F 25.9 °F 72% 30.25 in 10.0 mi NW 9.2 mph - N/A   Scattered Clouds
2:12 PM 34.0 °F 27.2 °F 25.9 °F 72% 30.24 in 10.0 mi NW 8.1 mph - N/A   Clear
2:33 PM 34.2 °F 27.5 °F 25.7 °F 71% 30.25 in 10.0 mi NNW 8.1 mph - N/A   Clear
2:53 PM 34.7 °F 28.1 °F 26.1 °F 71% 30.26 in 10.0 mi NNW 8.1 mph - N/A   Clear
3:13 PM 35.2 °F 30.3 °F 26.8 °F 71% 30.26 in 10.0 mi NNW 5.8 mph - N/A   Clear
3:33 PM 35.2 °F 28.8 °F 26.6 °F 71% 30.26 in 10.0 mi NW 8.1 mph - N/A   Clear
3:53 PM 35.6 °F 28.6 °F 26.6 °F 70% 30.26 in 10.0 mi NNW 9.2 mph - N/A   Clear
4:13 PM 35.6 °F 29.9 °F 26.1 °F 68% 30.25 in 10.0 mi NW 6.9 mph - N/A   Clear
4:33 PM 35.8 °F 30.1 °F 27.1 °F 71% 30.25 in 10.0 mi NNW 6.9 mph - N/A   Clear
4:53 PM 36.0 °F 29.6 °F 27.1 °F 70% 30.25 in 10.0 mi NNW 8.1 mph - N/A   Clear
5:13 PM 36.0 °F 30.3 °F 26.2 °F 68% 30.25 in 10.0 mi North 6.9 mph - N/A   Clear
5:33 PM 36.0 °F 30.3 °F 26.2 °F 68% 30.26 in 10.0 mi NW 6.9 mph - N/A   Clear
5:53 PM 35.8 °F 30.9 °F 26.1 °F 68% 30.26 in 10.0 mi NW 5.8 mph - N/A   Clear
6:13 PM 36.0 °F 31.1 °F 26.4 °F 68% 30.27 in 10.0 mi NNW 5.8 mph - N/A   Clear
6:33 PM 35.2 °F 32.4 °F 26.4 °F 70% 30.28 in 10.0 mi NW 3.5 mph - N/A   Clear
6:53 PM 35.1 °F 32.2 °F 27.3 °F 73% 30.28 in 10.0 mi NW 3.5 mph - N/A   Clear
7:13 PM 35.1 °F 31.0 °F 26.8 °F 72% 30.28 in 10.0 mi NW 4.6 mph - N/A   Clear
7:33 PM 34.7 °F - 26.6 °F 72% 30.28 in 10.0 mi Calm Calm - N/A   Clear
7:53 PM 33.8 °F - 27.1 °F 77% 30.29 in 10.0 mi Calm Calm - N/A   Clear
8:13 PM 32.7 °F 29.6 °F 26.8 °F 79% 30.30 in 10.0 mi WNW 3.5 mph - N/A   Clear
8:33 PM 32.5 °F - 26.8 °F 79% 30.30 in 10.0 mi Calm Calm - N/A   Clear
8:53 PM 32.4 °F - 27.3 °F 82% 30.31 in 10.0 mi Calm Calm - N/A   Clear
9:12 PM 32.0 °F - 27.0 °F 82% 30.31 in 10.0 mi Calm Calm - N/A   Clear
9:33 PM 32.0 °F - 26.6 °F 80% 30.31 in 10.0 mi Calm Calm - N/A   Clear
9:53 PM 30.6 °F - 25.9 °F 83% 30.32 in 10.0 mi Calm Calm - N/A   Clear
10:13 PM 30.2 °F - 26.2 °F 85% 30.33 in 10.0 mi Calm Calm - N/A   Clear
10:33 PM 29.1 °F - 25.7 °F 87% 30.33 in 10.0 mi Calm Calm - N/A   Clear
10:53 PM 28.9 °F - 26.2 °F 90% 30.32 in 10.0 mi Calm Calm - N/A   Clear
11:13 PM 28.2 °F - 25.3 °F 89% 30.32 in 10.0 mi Calm Calm - N/A   Clear
11:33 PM 28.4 °F - 25.7 °F 90% 30.32 in 10.0 mi Calm Calm - N/A   Clear
11:53 PM 28.0 °F - 25.7 °F 91% 30.31 in 10.0 mi Calm Calm - N/A   Clear